Home > Weather > Nelson > Past weeks

Flag for Canada Past Weather in Nelson, British Columbia, Canada — Yesterday and Last 2 Weeks

Now
73 °F

Mild.


Feels Like: 77 °F
Forecast: 46 / 79 °F
Wind: 8 mph from Northeast

Location: Nelson

Current Time: May 31, 2016 at 2:52:51 PM

Latest Report: May 31, 2016 at 2:00 PM


Visibility: N/A

Pressure: 30.09 "Hg (28.20 "Hg at 560m altitude)

Humidity: 35%

Dew Point: 43 °F

Location of NelsonLocation

Past Weather in Nelson — Graph

°F

Nelson Temperature Yesterday

Maximum temperature yesterday: 70 °F (at 3:00 PM)
Minimum temperature yesterday: 42 °F (at 1:00 AM)
Average temperature yesterday: 54 °F

High & Low Weather Summary for the Past Weeks

 TemperatureHumidityPressure
High80 °F (May 17, 4:00 PM)99% (May 19, 1:00 AM)30.26 "Hg (May 19, 1:00 AM)
Low41 °F (May 31, 5:00 AM)25% (May 16, 3:00 PM)29.59 "Hg (May 22, 5:00 AM)
Average56 °F73%29.90 "Hg
* Reported May 16 1:00 PM — May 31 1:00 PM, Nelson, Weather by CustomWeather, © 2016

Note: Actual official high and low records may vary slightly from our data, if they occured in-between our weather recording intervals... More about our weather records

Advertising

Nelson Weather History for the Previous 24 Hours

Scroll right to see more
 ConditionsComfort  
Time TempWeatherWind HumidityBarometerVisibility
1:00 PM
Tue, May 31
73 °FMild.7 mph30%30.11 "HgN/A
12:00 PM70 °FMild.5 mph35%30.13 "HgN/A
11:00 AM66 °FMild.3 mph33%30.17 "HgN/A
10:00 AM62 °FRefreshingly cool.3 mph42%30.19 "HgN/A
9:00 AM58 °FRefreshingly cool.3 mph49%30.22 "HgN/A
8:00 AM53 °FCool.2 mph59%30.24 "HgN/A
7:00 AM47 °FCool.1 mph79%30.25 "HgN/A
6:00 AM43 °FQuite cool.2 mph91%30.26 "HgN/A
5:00 AM41 °FQuite cool.1 mph89%30.26 "HgN/A
4:00 AM42 °FQuite cool.2 mph88%30.24 "HgN/A
3:00 AM42 °FQuite cool.2 mph87%30.24 "HgN/A
2:00 AM45 °FQuite cool.3 mph87%30.23 "HgN/A
1:00 AM46 °FCool.2 mph87%30.23 "HgN/A
12:00 AM47 °FCool.3 mph83%30.22 "HgN/A
11:00 PM
Mon, May 30
48 °FCool.2 mph81%30.21 "HgN/A
10:00 PM51 °FCool.1 mph72%30.20 "HgN/A
9:00 PM53 °FCool.1 mph72%30.19 "HgN/A
8:00 PM58 °FCool.1 mph63%30.16 "HgN/A
7:00 PM65 °FMild.No wind48%30.15 "HgN/A
6:00 PM67 °FMild.8 mph36%30.15 "HgN/A
5:00 PM66 °FMild.5 mph40%30.15 "HgN/A
4:00 PM67 °FMild.1 mph33%30.16 "HgN/A
3:00 PM70 °FMild.2 mph32%30.17 "HgN/A
2:00 PM70 °FMild.2 mph31%30.18 "HgN/A
Weather by CustomWeather, © 2016

See weather overviewHow to use our weather pages